Regional Weather Roundup
Issued by NWS

Home | Current Version | Previous Version | Text Only | Print | Product List | Glossary Off
Versions: 1 2 3 4 5 6 7 8 9 10 11 12 13 14 15 16 17 18 19 20 21 22 23 24 25 26 27 28 29 30 31 32 33 34 35 36 37 38 39 40 41 42 43 44 45 46 47 48 49 50

000
ASUS43 KOAX 210902
RWRNE

WEATHER ROUNDUP FOR NEBRASKA
NATIONAL WEATHER SERVICE OMAHA NE
300 AM CST WED FEB 21 2018

NOTES: SATELLITE DATA IS BEING USED TO AUGMENT CLOUD COVER ABOVE
       12000 FEET.
       "FAIR" INDICATES FEW OR NO CLOUDS BELOW 12,000 FEET WITH NO
       SIGNIFICANT WEATHER AND/OR OBSTRUCTIONS TO VISIBILITY.


NEZ001>004-019>022-054>056-211000-
NEBRASKA PANHANDLE

CITY           SKY/WX    TMP DP  RH WIND       PRES   REMARKS
SCOTTSBLUFF    CLEAR     -8 -12  83 E7        30.27S WCI -23
ALLIANCE       PTCLDY   -25 -27  90 CALM      30.27R
CHADRON        CLEAR    -16 -23  70 CALM      30.32R
GORDON         FAIR      -5 -13  70 SW9       30.29S WCI -22
KIMBALL        CLEAR     -4  -9  79 W10       30.20F WCI -22
SIDNEY         CLEAR     -4  -9  79 W6        30.26F WCI -16
$$

NEZ057>060-069>072-079>082-211000-
SOUTHWEST NEBRASKA

CITY           SKY/WX    TMP DP  RH WIND       PRES   REMARKS
NORTH PLATTE   CLEAR     -2  -9  72 CALM      30.40F
IMPERIAL       CLEAR      5  -1  76 W6        30.36S WCI  -6
LEXINGTON      MOCLDY     6  -1  75 W8        30.44R WCI  -7
MCCOOK         CLEAR      3  -2  79 CALM      30.44S
OGALLALA       CLEAR     -3  -8  79 SW3       30.36S
$$

NEZ005>010-023>029-035>040-094-211000-
NORTH CENTRAL NEBRASKA

CITY           SKY/WX    TMP DP  RH WIND       PRES   REMARKS
VALENTINE      CLEAR     -9 -16  71 W6        30.40F WCI -22
AINSWORTH      CLEAR     -3  -8  76 W5        30.41F WCI -13
BROKEN BOW     CLEAR      6  -5  60 NW13      30.41S WCI -10
O`NEILL        CLEAR     -4  -9  78 W9        30.47R WCI -20
ORD            CLEAR     -2  -7  79 CALM      30.46R
THEDFORD       CLEAR     -8 -13  79 CALM      30.39S
$$

NEZ041-046>049-061>064-073>077-083>087-211000-
SOUTH CENTRAL NEBRASKA

CITY           SKY/WX    TMP DP  RH WIND       PRES   REMARKS
GRAND ISLAND   CLEAR      5   0  79 NW3       30.49R
AURORA         CLEAR      2  -2  80 NW5       30.49R WCI  -7
HASTINGS       CLOUDY     3  -1  83 NW7       30.48R WCI  -9
HEBRON         PTCLDY    10   4  76 N7        30.51S WCI  -1
HOLDREGE       CLOUDY     6   1  82 CALM      30.45S
KEARNEY        CLEAR      4  -1  80 NW3       30.48R
YORK           PTCLDY     5   1  85 NW7       30.50R WCI  -7
$$

NEZ011>018-030>034-042>045-211000-
NORTHEAST NEBRASKA

CITY           SKY/WX    TMP DP  RH WIND       PRES   REMARKS
NORFOLK        CLEAR      2  -2  83 W7        30.50R WCI -11
ALBION         CLOUDY     0  -5  80 CALM      30.49S
BLAIR          CLEAR      9   4  81 NW6       30.50S WCI  -1
COLUMBUS       CLEAR      5   0  79 W7        30.52S WCI  -7
FREMONT        CLEAR      8   3  81 NW6       30.52F WCI  -2
TEKAMAH        CLEAR      8   2  76 N8        30.54R WCI  -4
WAYNE          CLEAR      4  -2  75 NW7       30.51R WCI  -8
$$

NEZ050>053-065>068-078-088>093-211000-
SOUTHEAST NEBRASKA

CITY           SKY/WX    TMP DP  RH WIND       PRES   REMARKS
LINCOLN        CLEAR      9   2  73 N6        30.54R WCI  -1
OMAHA EPPLEY   CLEAR     10   4  76 N9        30.53R WCI  -3
BEATRICE       CLEAR     11   6  79 N13       30.49F WCI  -4
FALLS CITY     CLOUDY    13   6  74 N9        30.50R WCI   1
NEBRASKA CITY  CLEAR     11   8  86 N12       30.50S WCI  -3
PLATTSMOUTH    CLEAR     10   6  82 NW9       30.50S WCI  -2
$$

NEZ044-045-051>053-067-211000-
OMAHA AREA

CITY           SKY/WX    TMP DP  RH WIND       PRES   REMARKS
OMAHA EPPLEY   CLEAR     10   4  76 N9        30.53R WCI  -3
BLAIR          CLEAR      9   4  81 NW6       30.50S WCI  -1
FREMONT        CLEAR      8   3  81 NW6       30.52F WCI  -2
MILLARD        CLEAR     12   5  73 N5        30.53S WCI   4
OFFUTT AFB     CLEAR     11   3  72 N7        30.52R WCI   0
PLATTSMOUTH    CLEAR     10   6  82 NW9       30.50S WCI  -2
WAHOO          FAIR       9   3  78 NW7       30.52S WCI  -2
$$




USA.gov is the U.S. government's official web portal to all federal, state and local government web resources and services.